User: anonymous   Login
Location: Unspecified
(0.0000°N, 0.0000°E)
Time: 15:32:41
(UTC+01:00)
Language:

ARIANE 5 R/B - Orbit

View from above orbital plane
View from above orbital plane
View from above satellite
View from above satellite

Ground track
Ground track

The orbit data is extracted from the following two-line orbital elements,

1 28886U 05041C   14331.63755015  .00000052  00000-0  11006-2 0  6428
2 28886 008.2987 356.1718 7185102 125.2176 011.0903 02.24312788 74795
Epoch (UTC): 27 November 2014 15:18:04
Eccentricity: 0.7185102
inclination: 8.2987°
perigee height: 561 km
apogee height: 35984 km
right ascension of ascending node: 356.1718°
argument of perigee: 125.2176°
revolutions per day: 2.24312788
mean anomaly at epoch: 11.0903°
orbit number at epoch: 7479

The dashed part of the orbit path shows where the satellite is in the earth's shadow,  

DLR